INFORMACIÓN METAR y TAF
METAR FOR LEJR
ADDS - METARS form results

(0651 UTC 24 June 2017)
Data provider http://aviationweather.gov/adds/metars/
 
METAR text: LEJR 240630Z 01004KT 340V050 CAVOK 26/12 Q1018
Conditions at: LEJR observed 0630 UTC 24 June 2017
Temperature: 26.0°C (79°F)
Dewpoint: 12.0°C (54°F) [RH = 42%]
Pressure (altimeter): 30.06 inches Hg (1018.0 mb)
Winds: from the N (10 degrees) at 5 MPH (4 knots; 2.1 m/s)
Visibility: 6 or more miles (10+ km)
Ceiling: ceiling and visibility are OK
Clouds: unknown
Weather: no significant weather observed at this time

METAR text: LEJR 240600Z 35008KT CAVOK 24/12 Q1018
Conditions at: LEJR observed 0600 UTC 24 June 2017
Temperature: 24.0°C (75°F)
Dewpoint: 12.0°C (54°F) [RH = 47%]
Pressure (altimeter): 30.06 inches Hg (1018.0 mb)
Winds: from the N (350 degrees) at 9 MPH (8 knots; 4.2 m/s)
Visibility: 6 or more miles (10+ km)
Ceiling: ceiling and visibility are OK
Clouds: unknown
Weather: no significant weather observed at this time

Forecast for: LEJR
Text: TAF LEJR 240500Z 2406/2506 01008KT CAVOK TX39/2415Z TN20/2504Z
Forecast period: 0600 UTC 24 June 2017 to 0600 UTC 25 June 2017
Forecast type: FROM: standard forecast or significant change
Winds: from the N (10 degrees) at 9 MPH (8 knots; 4.2 m/s)
Visibility: 6 or more miles (10+ km)
Clouds: not forecast
Weather: no significant weather forecast for this period
Text: PROB40
Forecast period: 1600 to 1900 UTC 24 June 2017
Forecast type: TEMPORARY: The following changes expected for less than half the time period
Winds: from the SW (230 degrees) at 12 MPH (10 knots; 5.2 m/s)
Weather: no significant weather forecast for this period

 MAPA DE AEROPUERTO

 INFORMACIÓN DE PISTA
Pista 02 Longitud 7546 ft Ancho 148 ft
Elevación 68 ft Umbral desplazado 0 ft Rumbo de pista 21
Pista 20 Longitud 7546 ft Ancho 148 ft
Elevación 93 ft Umbral desplazado 0 ft Rumbo de pista 201

 FRECUANCIAS DEL AEROPUERTO
Tipo APP Nombre APP Frecuencia 128.5 MHZ
Tipo GND Nombre GND Frecuencia 121.6 MHZ
Tipo TWR Nombre TWR Frecuencia 118.55 MHZ

 RADIO AYUDAS DEL AEROPUERTO
Tipo NDB Nombre Jerez Frecuencia 433 KHZ
Tipo VOR-DME Nombre Jerez Frecuencia 113000 KHZ



Nuestro objetivo, educar a través de la simulación aérea y las redes de vuelo on line la cultura aeronáutica y el conocimiento técnico y operativo de volar un avión comercial; Ayudar en la formación de personas y o profesionales de aquellos que desea llegar a ser piloto privado o de líneas aéreas, militar, controlador aéreo, o conocer el mundo del tráfico aéreo, la simulación aérea, el vuelo, y todo lo referente con la aeronáutica.

Copyright 2006 - 2017
Clickair-Va desde 2006 son marcas registradas con permiso de Vueling S.A
Patrocinado por ACAE
Los foros de Clickair VA son foros privados para los miembros de la VA

Powered by Virtual Airlines Manager